Погода в Авторемзаводе

Россия / Смоленская область     54˚45′34″N   31˚41′05″E
темп.,
°C
ветер,
м/с
пор.,
м/с
влажн.,
%
обл.,
%
осадки,
мм/ч
давл.,
гПа
погр.,
м
16 января, сб
сб1600:00−19˚ссз2397100 0.1 101251
03:00−20˚ссз2399100 0.1 101251
06:00−19˚с2497100 0.1 1012135
09:00−22˚с239887 0.1 101322
12:00−19˚ссз349550 0.0 1013227
15:00−18˚сз359472 0.0 1014283
18:00−19˚зсз3697100 0.0 1014151
21:00−18˚сз4697100 0.1 1015250
17 января, вс
вс1700:00−17˚сз4796100 0.5 1015301
03:00−18˚сз4796100 0.8 1015300
06:00−19˚сз3598100 0.0 1015114
09:00−20˚ссз3398100 0.0 101772
12:00−18˚с349573 0.0 1018185
15:00−17˚ссз249440 0.0 1018233
18:00−20˚с33975 0.0 101926
21:00−21˚ссв23962 0.0 102020
18 января, пн
пн1800:00−22˚с22950 0.0 102020
03:00−24˚св11960 0.0 102120
06:00−24˚ссз11950 0.0 102120
09:00−23˚сз229211 0.0 102120
12:00−18˚сз129554 0.0 102195
15:00−16˚з129376 0.0 1020144
18:00−17˚зюз119799 0.0 102021
21:00−16˚зсз1197100 0.1 102021
19 января, вт
вт1900:00−15˚зюз1297100 0.3 102021
03:00−15˚з1296100 0.4 102021
06:00−15˚сз229799 0.1 101920
09:00−15˚сз1297100 0.1 102020
12:00−12˚сз239484 0.1 1020153
15:00−11˚зсз239687 0.1 1020199
18:00−15˚зсз229890 0.0 102120
21:00−16˚зсз129882 0.0 102220
20 января, ср
ср2000:00−17˚зюз129750 0.0 102320
03:00−17˚юз229425 0.0 102420
06:00−17˚ю23940 0.0 102421
09:00−17˚ю34960 0.0 102460
12:00−13˚ю489330 0.0 1023249
15:00−11˚ю5109249 0.0 1022305
18:00−12˚ю6139281 0.0 1021299
21:00−11˚ю6139268 0.0 1020352